Time,TemperatureF,DewpointF,PressureIn,WindDirection,WindDirectionDegrees,WindSpeedMPH,WindSpeedGustMPH,Humidity,HourlyPrecipIn,Conditions,Clouds,dailyrainin,SoftwareType,DateUTC
2013-05-21 00:00:00,67.6,56.3,29.83,ESE,108,0.0,0.0,67,0.00,,OVC014,0.00,VWS V14.00,2013-05-21 04:00:00,
2013-05-21 00:01:00,67.6,56.3,29.83,ESE,108,0.0,0.0,67,0.00,,,0.00,VWS V14.00,2013-05-21 04:01:00,
2013-05-21 00:06:00,67.5,56.5,29.83,ESE,108,0.0,0.0,68,0.00,,,0.00,VWS V14.00,2013-05-21 04:06:00,
2013-05-21 00:11:00,67.5,56.5,29.83,ESE,108,0.0,0.0,68,0.00,,,0.00,VWS V14.00,2013-05-21 04:11:00,
2013-05-21 00:16:00,67.3,56.4,29.83,ESE,109,0.0,0.0,68,0.00,,,0.00,VWS V14.00,2013-05-21 04:16:00,
2013-05-21 00:21:00,67.3,56.8,29.83,SE,130,0.0,0.0,69,0.00,,,0.00,VWS V14.00,2013-05-21 04:21:00,
2013-05-21 00:26:00,67.3,56.8,29.83,SE,130,0.0,0.0,69,0.00,,,0.00,VWS V14.00,2013-05-21 04:26:00,
2013-05-21 00:31:00,67.3,56.8,29.83,SE,130,0.0,0.0,69,0.00,,,0.00,VWS V14.00,2013-05-21 04:31:00,
2013-05-21 00:36:00,67.3,56.8,29.83,SE,130,0.0,0.0,69,0.00,,,0.00,VWS V14.00,2013-05-21 04:36:00,
2013-05-21 00:41:00,67.1,56.6,29.83,SE,130,0.0,0.0,69,0.00,,,0.00,VWS V14.00,2013-05-21 04:41:00,
2013-05-21 00:46:00,67.1,57.0,29.83,SE,130,0.0,0.0,70,0.00,,,0.00,VWS V14.00,2013-05-21 04:46:00,
2013-05-21 00:51:00,66.9,56.8,29.83,SE,130,0.0,0.0,70,0.00,,,0.00,VWS V14.00,2013-05-21 04:51:00,
2013-05-21 00:57:00,66.7,56.7,29.83,SE,130,0.0,0.0,70,0.00,,,0.00,VWS V14.00,2013-05-21 04:57:00,
2013-05-21 01:02:00,66.7,56.7,29.83,SE,128,0.0,0.0,70,0.00,,,0.00,VWS V14.00,2013-05-21 05:02:00,
2013-05-21 01:07:00,66.6,56.5,29.83,SE,128,0.0,0.0,70,0.00,,,0.00,VWS V14.00,2013-05-21 05:07:00,
2013-05-21 01:12:00,66.4,56.7,29.83,ESE,108,0.0,0.0,71,0.00,,,0.00,VWS V14.00,2013-05-21 05:12:00,
2013-05-21 01:17:00,66.2,56.5,29.83,ESE,108,0.0,0.0,71,0.00,,,0.00,VWS V14.00,2013-05-21 05:17:00,
2013-05-21 01:22:00,66.2,56.5,29.83,ESE,108,0.0,0.0,71,0.00,,,0.00,VWS V14.00,2013-05-21 05:22:00,
2013-05-21 01:27:00,66.2,56.5,29.83,ESE,108,0.0,0.0,71,0.00,,,0.00,VWS V14.00,2013-05-21 05:27:00,
2013-05-21 01:32:00,66.2,56.9,29.83,ESE,108,0.0,0.0,72,0.00,,,0.00,VWS V14.00,2013-05-21 05:32:00,
2013-05-21 01:37:00,66.0,56.4,29.83,ESE,105,0.0,0.0,71,0.00,,,0.00,VWS V14.00,2013-05-21 05:37:00,
2013-05-21 01:42:00,65.8,56.6,29.83,ESE,105,0.0,0.0,72,0.00,,,0.00,VWS V14.00,2013-05-21 05:42:00,
2013-05-21 01:47:00,65.8,56.6,29.83,ESE,105,0.0,0.0,72,0.00,,,0.00,VWS V14.00,2013-05-21 05:47:00,
2013-05-21 01:52:00,65.8,56.6,29.83,ESE,105,0.0,0.0,72,0.00,,,0.00,VWS V14.00,2013-05-21 05:52:00,
2013-05-21 01:57:00,65.8,57.0,29.83,ESE,105,0.0,0.0,73,0.00,,,0.00,VWS V14.00,2013-05-21 05:57:00,
2013-05-21 02:02:00,65.7,56.8,29.83,ESE,105,0.0,0.0,73,0.00,,,0.00,VWS V14.00,2013-05-21 06:02:00,
2013-05-21 02:07:00,65.7,56.8,29.83,ESE,105,0.0,0.0,73,0.00,,,0.00,VWS V14.00,2013-05-21 06:07:00,
2013-05-21 02:12:00,65.5,56.6,29.80,ESE,105,0.0,0.0,73,0.00,,,0.00,VWS V14.00,2013-05-21 06:12:00,
2013-05-21 02:17:00,65.5,57.0,29.80,ESE,105,0.0,0.0,74,0.00,,,0.00,VWS V14.00,2013-05-21 06:17:00,
2013-05-21 02:22:00,65.5,57.0,29.80,ESE,105,0.0,0.0,74,0.00,,,0.00,VWS V14.00,2013-05-21 06:22:00,
2013-05-21 02:27:00,65.5,57.0,29.80,ESE,105,0.0,0.0,74,0.00,,,0.00,VWS V14.00,2013-05-21 06:27:00,
2013-05-21 02:32:00,65.5,57.4,29.80,ESE,105,0.0,0.0,75,0.00,,,0.00,VWS V14.00,2013-05-21 06:32:00,
2013-05-21 02:37:00,65.3,57.2,29.80,ESE,105,0.0,0.0,75,0.00,,,0.00,VWS V14.00,2013-05-21 06:37:00,
2013-05-21 02:42:00,65.1,57.0,29.80,ESE,105,0.0,0.0,75,0.00,,,0.00,VWS V14.00,2013-05-21 06:42:00,
2013-05-21 02:47:00,65.1,57.4,29.80,ESE,105,0.0,0.0,76,0.00,,,0.00,VWS V14.00,2013-05-21 06:47:00,
2013-05-21 02:52:00,64.9,57.2,29.80,ESE,105,0.0,0.0,76,0.00,,,0.00,VWS V14.00,2013-05-21 06:52:00,
2013-05-21 02:57:00,64.9,57.2,29.80,ESE,105,0.0,0.0,76,0.00,,,0.00,VWS V14.00,2013-05-21 06:57:00,
2013-05-21 03:02:00,64.8,57.0,29.80,SSE,162,0.0,0.0,76,0.00,,,0.00,VWS V14.00,2013-05-21 07:02:00,
2013-05-21 03:07:00,64.6,57.2,29.80,SW,219,0.0,0.0,77,0.00,,,0.00,VWS V14.00,2013-05-21 07:07:00,
2013-05-21 03:12:00,64.4,57.0,29.80,SW,219,0.0,0.0,77,0.00,,,0.00,VWS V14.00,2013-05-21 07:12:00,
2013-05-21 03:17:00,64.4,57.0,29.80,SW,219,0.0,0.0,77,0.00,,,0.00,VWS V14.00,2013-05-21 07:17:00,
2013-05-21 03:22:00,64.2,56.9,29.80,SW,219,0.0,0.0,77,0.00,,,0.00,VWS V14.00,2013-05-21 07:22:00,
2013-05-21 03:27:00,64.2,56.9,29.80,SW,219,0.0,0.0,77,0.00,,,0.00,VWS V14.00,2013-05-21 07:27:00,
2013-05-21 03:32:00,64.0,56.7,29.80,SW,219,0.0,0.0,77,0.00,,,0.00,VWS V14.00,2013-05-21 07:32:00,
2013-05-21 03:37:00,64.0,57.0,29.80,SW,218,0.0,0.0,78,0.00,,,0.00,VWS V14.00,2013-05-21 07:37:00,
2013-05-21 03:42:00,64.0,57.0,29.77,SW,218,0.0,0.0,78,0.00,,,0.00,VWS V14.00,2013-05-21 07:42:00,
2013-05-21 03:47:00,64.0,57.0,29.77,SW,218,0.0,0.0,78,0.00,,,0.00,VWS V14.00,2013-05-21 07:47:00,
2013-05-21 03:52:00,64.0,57.0,29.77,SW,218,0.0,0.0,78,0.00,,,0.00,VWS V14.00,2013-05-21 07:52:00,
2013-05-21 03:57:00,64.0,57.4,29.77,SW,218,0.0,0.0,79,0.00,,,0.00,VWS V14.00,2013-05-21 07:57:00,
2013-05-21 04:02:00,63.9,57.2,29.77,SW,218,0.0,0.0,79,0.00,,,0.00,VWS V14.00,2013-05-21 08:02:00,
2013-05-21 04:07:00,63.9,57.2,29.77,SE,139,0.0,0.0,79,0.00,,,0.00,VWS V14.00,2013-05-21 08:07:00,
2013-05-21 04:12:00,63.9,57.2,29.77,SE,145,0.0,0.0,79,0.00,,,0.00,VWS V14.00,2013-05-21 08:12:00,
2013-05-21 04:17:00,63.9,57.2,29.77,SE,144,0.0,0.0,79,0.00,,,0.00,VWS V14.00,2013-05-21 08:17:00,
2013-05-21 04:22:00,63.7,57.0,29.77,SE,144,0.0,0.0,79,0.00,,,0.00,VWS V14.00,2013-05-21 08:22:00,
2013-05-21 04:27:00,63.7,57.0,29.77,SE,143,0.0,0.0,79,0.00,,,0.00,VWS V14.00,2013-05-21 08:27:00,
2013-05-21 04:32:00,63.5,56.9,29.77,SE,143,0.0,0.0,79,0.00,,,0.00,VWS V14.00,2013-05-21 08:32:00,
2013-05-21 04:37:00,63.5,57.2,29.77,SE,144,0.0,0.0,80,0.00,,,0.00,VWS V14.00,2013-05-21 08:37:00,
2013-05-21 04:42:00,63.3,57.0,29.80,SE,144,0.0,0.0,80,0.00,,,0.00,VWS V14.00,2013-05-21 08:42:00,
2013-05-21 04:47:00,63.1,56.9,29.80,SE,143,0.0,0.0,80,0.00,,,0.00,VWS V14.00,2013-05-21 08:47:00,
2013-05-21 04:52:00,63.1,56.9,29.80,SE,143,0.0,0.0,80,0.00,,,0.00,VWS V14.00,2013-05-21 08:52:00,
2013-05-21 04:57:00,63.1,56.9,29.80,SE,143,0.0,0.0,80,0.00,,,0.00,VWS V14.00,2013-05-21 08:57:00,
2013-05-21 05:02:00,63.0,56.7,29.80,SE,143,0.0,0.0,80,0.00,,,0.00,VWS V14.00,2013-05-21 09:02:00,
2013-05-21 05:07:00,63.0,57.0,29.80,SE,144,0.0,0.0,81,0.00,,,0.00,VWS V14.00,2013-05-21 09:07:00,
2013-05-21 05:12:00,63.0,57.0,29.80,WSW,243,0.0,0.0,81,0.00,,,0.00,VWS V14.00,2013-05-21 09:12:00,
2013-05-21 05:17:00,62.8,56.9,29.80,WSW,244,0.0,0.0,81,0.00,,,0.00,VWS V14.00,2013-05-21 09:17:00,
2013-05-21 05:22:00,62.6,56.7,29.80,WSW,243,0.0,0.0,81,0.00,,,0.00,VWS V14.00,2013-05-21 09:22:00,
2013-05-21 05:27:00,62.6,56.7,29.80,WSW,243,0.0,0.0,81,0.00,,,0.00,VWS V14.00,2013-05-21 09:27:00,
2013-05-21 05:32:00,62.4,56.5,29.80,WSW,243,0.0,0.0,81,0.00,,,0.00,VWS V14.00,2013-05-21 09:32:00,
2013-05-21 05:37:00,62.6,56.7,29.80,WSW,243,0.0,0.0,81,0.00,,,0.00,VWS V14.00,2013-05-21 09:37:00,
2013-05-21 05:42:00,62.6,56.7,29.80,WSW,243,0.0,0.0,81,0.00,,,0.00,VWS V14.00,2013-05-21 09:42:00,
2013-05-21 05:47:00,62.6,56.7,29.80,WSW,243,0.0,0.0,81,0.00,,,0.00,VWS V14.00,2013-05-21 09:47:00,
2013-05-21 05:52:00,62.6,57.0,29.80,WSW,243,0.0,0.0,82,0.00,,,0.00,VWS V14.00,2013-05-21 09:52:00,
2013-05-21 05:57:00,62.6,57.0,29.80,WSW,243,0.0,0.0,82,0.00,,,0.00,VWS V14.00,2013-05-21 09:57:00,
2013-05-21 06:02:00,62.8,57.2,29.80,WSW,243,0.0,0.0,82,0.00,,,0.00,VWS V14.00,2013-05-21 10:02:00,
2013-05-21 06:07:00,63.0,57.4,29.80,WSW,243,0.0,0.0,82,0.00,,,0.00,VWS V14.00,2013-05-21 10:07:00,
2013-05-21 06:12:00,63.0,57.4,29.80,WSW,243,0.0,0.0,82,0.00,,,0.00,VWS V14.00,2013-05-21 10:12:00,
2013-05-21 06:17:00,63.0,57.4,29.80,WSW,243,0.0,0.0,82,0.00,,,0.00,VWS V14.00,2013-05-21 10:17:00,
2013-05-21 06:22:00,63.1,57.6,29.80,WSW,243,0.0,0.0,82,0.00,,,0.00,VWS V14.00,2013-05-21 10:22:00,
2013-05-21 06:27:00,63.1,57.6,29.80,WSW,243,0.0,0.0,82,0.00,,,0.00,VWS V14.00,2013-05-21 10:27:00,
2013-05-21 06:32:00,63.1,57.6,29.80,WSW,243,0.0,0.0,82,0.00,,,0.00,VWS V14.00,2013-05-21 10:32:00,
2013-05-21 06:37:00,63.3,57.7,29.80,WSW,243,0.0,0.0,82,0.00,,,0.00,VWS V14.00,2013-05-21 10:37:00,
2013-05-21 06:42:00,63.3,57.7,29.80,WSW,243,0.0,0.0,82,0.00,,,0.00,VWS V14.00,2013-05-21 10:42:00,
2013-05-21 06:47:00,63.5,57.9,29.80,WSW,243,0.0,0.0,82,0.00,,,0.00,VWS V14.00,2013-05-21 10:47:00,
2013-05-21 06:52:00,63.7,58.1,29.80,WSW,243,0.0,0.0,82,0.00,,,0.00,VWS V14.00,2013-05-21 10:52:00,
2013-05-21 06:57:00,63.9,58.3,29.80,WSW,243,0.0,0.0,82,0.00,,,0.00,VWS V14.00,2013-05-21 10:57:00,
2013-05-21 07:02:00,64.0,58.8,29.80,WSW,243,0.0,0.0,83,0.00,,,0.00,VWS V14.00,2013-05-21 11:02:00,
2013-05-21 07:07:00,64.0,58.4,29.80,WSW,244,0.0,0.0,82,0.00,,,0.00,VWS V14.00,2013-05-21 11:07:00,
2013-05-21 07:12:00,64.0,58.4,29.80,WSW,243,0.0,0.0,82,0.00,,,0.00,VWS V14.00,2013-05-21 11:12:00,
2013-05-21 07:17:00,64.2,58.6,29.80,WSW,244,0.0,0.0,82,0.00,,,0.00,VWS V14.00,2013-05-21 11:17:00,
2013-05-21 07:22:00,64.4,58.8,29.80,WSW,243,0.0,0.0,82,0.00,,,0.00,VWS V14.00,2013-05-21 11:22:00,
2013-05-21 07:27:00,64.8,59.1,29.80,WSW,243,0.0,0.0,82,0.00,,,0.00,VWS V14.00,2013-05-21 11:27:00,
2013-05-21 07:32:00,64.9,59.3,29.80,WSW,244,0.0,0.0,82,0.00,,,0.00,VWS V14.00,2013-05-21 11:32:00,
2013-05-21 07:37:00,65.1,59.5,29.80,WSW,243,0.0,0.0,82,0.00,,,0.00,VWS V14.00,2013-05-21 11:37:00,
2013-05-21 07:42:00,65.3,59.7,29.80,WSW,243,0.0,0.0,82,0.00,,,0.00,VWS V14.00,2013-05-21 11:42:00,
2013-05-21 07:47:00,65.7,60.0,29.80,WSW,243,0.0,0.0,82,0.00,,,0.00,VWS V14.00,2013-05-21 11:47:00,
2013-05-21 07:52:00,66.0,60.4,29.80,WSW,243,0.0,0.0,82,0.00,,,0.00,VWS V14.00,2013-05-21 11:52:00,
2013-05-21 07:57:00,66.2,60.5,29.80,WSW,243,0.0,0.0,82,0.00,,,0.00,VWS V14.00,2013-05-21 11:57:00,
2013-05-21 08:02:00,66.6,60.9,29.80,WSW,244,0.0,0.0,82,0.00,,,0.00,VWS V14.00,2013-05-21 12:02:00,
2013-05-21 08:07:00,66.9,61.2,29.80,SW,225,0.0,0.0,82,0.00,,,0.00,VWS V14.00,2013-05-21 12:07:00,
2013-05-21 08:12:00,67.3,61.3,29.80,SW,225,0.0,0.0,81,0.00,,,0.00,VWS V14.00,2013-05-21 12:12:00,
2013-05-21 08:17:00,67.5,61.4,29.80,SW,225,0.0,0.0,81,0.00,,,0.00,VWS V14.00,2013-05-21 12:17:00,
2013-05-21 08:22:00,67.6,61.6,29.80,SSW,209,0.0,0.0,81,0.00,,,0.00,VWS V14.00,2013-05-21 12:22:00,
2013-05-21 08:27:00,68.0,62.0,29.80,East,80,0.0,0.0,81,0.00,,,0.00,VWS V14.00,2013-05-21 12:27:00,
2013-05-21 08:32:00,68.2,62.1,29.80,East,81,0.0,0.0,81,0.00,,,0.00,VWS V14.00,2013-05-21 12:32:00,
2013-05-21 08:37:00,68.5,62.5,29.80,ESE,113,0.0,0.0,81,0.00,,,0.00,VWS V14.00,2013-05-21 12:37:00,
2013-05-21 08:42:00,68.9,62.5,29.80,ENE,77,0.0,0.0,80,0.00,,,0.00,VWS V14.00,2013-05-21 12:42:00,
2013-05-21 08:47:00,69.4,63.0,29.80,ESE,120,0.0,0.0,80,0.00,,,0.00,VWS V14.00,2013-05-21 12:47:00,
2013-05-21 08:52:00,69.8,63.4,29.80,ESE,120,0.0,0.0,80,0.00,,,0.00,VWS V14.00,2013-05-21 12:52:00,
2013-05-21 08:57:00,70.2,63.7,29.80,ESE,120,0.0,0.0,80,0.00,,,0.00,VWS V14.00,2013-05-21 12:57:00,
2013-05-21 09:02:00,70.7,64.2,29.80,SW,236,0.0,0.0,80,0.00,,,0.00,VWS V14.00,2013-05-21 13:02:00,
2013-05-21 09:07:00,71.1,64.2,29.80,SW,235,0.0,0.0,79,0.00,,,0.00,VWS V14.00,2013-05-21 13:07:00,
2013-05-21 09:12:00,71.6,64.4,29.80,SW,227,0.0,0.0,78,0.00,,,0.00,VWS V14.00,2013-05-21 13:12:00,
2013-05-21 09:17:00,72.0,64.7,29.80,West,262,0.0,0.0,78,0.00,,,0.00,VWS V14.00,2013-05-21 13:17:00,
2013-05-21 09:22:00,72.5,64.9,29.80,WSW,256,0.0,0.0,77,0.00,,,0.00,VWS V14.00,2013-05-21 13:22:00,
2013-05-21 09:27:00,72.9,64.5,29.80,WSW,241,5.4,5.8,75,0.00,,,0.00,VWS V14.00,2013-05-21 13:27:00,
2013-05-21 09:32:00,73.2,63.3,29.80,WSW,255,3.6,4.0,71,0.00,,,0.00,VWS V14.00,2013-05-21 13:32:00,
2013-05-21 09:37:00,73.6,62.8,29.80,SW,220,3.6,4.0,69,0.00,,,0.00,VWS V14.00,2013-05-21 13:37:00,
2013-05-21 09:42:00,74.1,62.5,29.80,SSW,209,0.0,0.0,67,0.00,,,0.00,VWS V14.00,2013-05-21 13:42:00,
2013-05-21 09:47:00,74.5,62.0,29.80,WSW,255,0.0,4.0,65,0.00,,,0.00,VWS V14.00,2013-05-21 13:47:00,
2013-05-21 09:52:00,74.8,61.9,29.80,SW,234,0.0,3.6,64,0.00,,,0.00,VWS V14.00,2013-05-21 13:52:00,
2013-05-21 09:57:00,75.0,60.2,29.77,NW,309,0.0,0.0,60,0.00,,,0.00,VWS V14.00,2013-05-21 13:57:00,
2013-05-21 10:02:00,75.6,60.7,29.77,WSW,244,3.6,3.6,60,0.00,,,0.00,VWS V14.00,2013-05-21 14:02:00,
2013-05-21 10:07:00,75.9,60.1,29.77,SW,218,0.0,0.0,58,0.00,,,0.00,VWS V14.00,2013-05-21 14:07:00,
2013-05-21 10:12:00,76.3,59.5,29.77,SSW,208,0.0,0.0,56,0.00,,,0.00,VWS V14.00,2013-05-21 14:12:00,
2013-05-21 10:17:00,76.6,59.3,29.77,West,261,2.7,4.0,55,0.00,,,0.00,VWS V14.00,2013-05-21 14:17:00,
2013-05-21 10:22:00,77.4,57.8,29.77,SSE,156,0.0,0.0,51,0.00,,,0.00,VWS V14.00,2013-05-21 14:22:00,
2013-05-21 10:27:00,77.7,55.9,29.77,East,90,3.1,3.1,47,0.00,,,0.00,VWS V14.00,2013-05-21 14:27:00,
2013-05-21 10:32:00,78.3,55.8,29.77,WSW,238,4.0,4.0,46,0.00,,,0.00,VWS V14.00,2013-05-21 14:32:00,
2013-05-21 10:37:00,78.8,55.7,29.77,WSW,244,5.4,5.8,45,0.00,,,0.00,VWS V14.00,2013-05-21 14:37:00,
2013-05-21 10:42:00,79.2,54.1,29.77,SW,235,4.9,4.9,42,0.00,,,0.00,VWS V14.00,2013-05-21 14:42:00,
2013-05-21 10:47:00,79.7,53.9,29.77,South,175,2.7,3.6,41,0.00,,,0.00,VWS V14.00,2013-05-21 14:47:00,
2013-05-21 10:52:00,80.2,53.8,29.77,West,271,3.6,4.0,40,0.00,,,0.00,VWS V14.00,2013-05-21 14:52:00,
2013-05-21 10:57:00,81.0,52.3,29.77,WSW,241,3.6,4.0,37,0.00,,,0.00,VWS V14.00,2013-05-21 14:57:00,
2013-05-21 11:02:00,81.3,51.8,29.77,SW,234,2.7,4.5,36,0.00,,,0.00,VWS V14.00,2013-05-21 15:02:00,
2013-05-21 11:07:00,82.9,54.8,29.77,SSE,159,0.0,2.7,38,0.00,,,0.00,VWS V14.00,2013-05-21 15:07:00,
2013-05-21 11:12:00,84.4,51.3,29.77,NW,309,4.9,4.9,32,0.00,,,0.00,VWS V14.00,2013-05-21 15:12:00,
2013-05-21 11:17:00,85.6,51.6,29.77,West,281,2.7,3.6,31,0.00,,,0.00,VWS V14.00,2013-05-21 15:17:00,
2013-05-21 11:22:00,86.2,51.1,29.77,SSW,192,4.0,4.0,30,0.00,,,0.00,VWS V14.00,2013-05-21 15:22:00,
2013-05-21 11:27:00,86.5,50.5,29.77,WSW,242,2.7,3.6,29,0.00,,,0.00,VWS V14.00,2013-05-21 15:27:00,
2013-05-21 11:32:00,87.1,51.0,29.77,West,276,4.5,6.3,29,0.00,,,0.00,VWS V14.00,2013-05-21 15:32:00,
2013-05-21 11:37:00,87.6,50.5,29.77,WNW,285,4.0,4.5,28,0.00,,,0.00,VWS V14.00,2013-05-21 15:37:00,
2013-05-21 11:42:00,87.8,50.7,29.77,WNW,283,4.0,4.0,28,0.00,,,0.00,VWS V14.00,2013-05-21 15:42:00,
2013-05-21 11:47:00,88.2,51.0,29.77,West,277,0.0,4.0,28,0.00,,,0.00,VWS V14.00,2013-05-21 15:47:00,
2013-05-21 11:52:00,88.9,50.6,29.77,West,263,2.7,4.5,27,0.00,,,0.00,VWS V14.00,2013-05-21 15:52:00,
2013-05-21 11:57:00,89.4,51.1,29.74,SE,135,3.1,3.1,27,0.00,,,0.00,VWS V14.00,2013-05-21 15:57:00,
2013-05-21 12:02:00,89.8,50.4,29.74,WSW,248,3.6,4.0,26,0.00,,CLR,0.00,VWS V14.00,2013-05-21 16:02:00,
2013-05-21 12:07:00,90.0,50.5,29.74,WSW,249,2.7,3.6,26,0.00,,CLR,0.00,VWS V14.00,2013-05-21 16:07:00,
2013-05-21 12:12:00,90.3,49.8,29.74,NW,314,0.0,2.7,25,0.00,,CLR,0.00,VWS V14.00,2013-05-21 16:12:00,
2013-05-21 12:17:00,91.2,50.5,29.74,WNW,293,3.6,5.8,25,0.00,,CLR,0.00,VWS V14.00,2013-05-21 16:17:00,
2013-05-21 12:22:00,91.4,48.4,29.74,SSW,195,0.0,4.0,23,0.00,,CLR,0.00,VWS V14.00,2013-05-21 16:22:00,
2013-05-21 12:27:00,91.6,48.6,29.74,WSW,246,0.0,4.0,23,0.00,,CLR,0.00,VWS V14.00,2013-05-21 16:27:00,
2013-05-21 12:32:00,91.9,48.9,29.74,SW,236,4.0,4.0,23,0.00,,CLR,0.00,VWS V14.00,2013-05-21 16:32:00,
2013-05-21 12:37:00,92.3,46.8,29.74,SSE,161,0.0,4.5,21,0.00,,CLR,0.00,VWS V14.00,2013-05-21 16:37:00,
2013-05-21 12:42:00,93.0,47.3,29.74,NW,319,3.6,3.6,21,0.00,,CLR,0.00,VWS V14.00,2013-05-21 16:42:00,
2013-05-21 12:47:00,93.7,45.3,29.74,West,265,3.1,4.0,19,0.00,,CLR,0.00,VWS V14.00,2013-05-21 16:47:00,
2013-05-21 12:52:00,94.1,47.0,29.74,SSW,211,3.6,3.6,20,0.00,,CLR,0.00,VWS V14.00,2013-05-21 16:52:00,
2013-05-21 12:57:00,94.5,44.5,29.74,WSW,250,4.5,5.8,18,0.00,,CLR,0.00,VWS V14.00,2013-05-21 16:57:00,
2013-05-21 13:02:00,94.8,44.8,29.74,WSW,248,5.8,5.8,18,0.00,,CLR,0.00,VWS V14.00,2013-05-21 17:02:00,
2013-05-21 13:07:00,95.0,44.9,29.74,WSW,250,4.5,4.9,18,0.00,,CLR,0.00,VWS V14.00,2013-05-21 17:07:00,
2013-05-21 13:12:00,95.2,43.5,29.74,WNW,292,5.4,5.4,17,0.00,,CLR,0.00,VWS V14.00,2013-05-21 17:12:00,
2013-05-21 13:17:00,95.7,44.0,29.74,SW,227,3.1,6.7,17,0.00,,CLR,0.00,VWS V14.00,2013-05-21 17:17:00,
2013-05-21 13:22:00,95.4,45.2,29.74,SW,234,3.1,3.1,18,0.00,,CLR,0.00,VWS V14.00,2013-05-21 17:22:00,
2013-05-21 13:27:00,94.8,44.8,29.74,East,98,3.6,4.0,18,0.00,,CLR,0.00,VWS V14.00,2013-05-21 17:27:00,
2013-05-21 13:32:00,94.6,46.0,29.74,SSE,162,0.0,3.1,19,0.00,,CLR,0.00,VWS V14.00,2013-05-21 17:32:00,
2013-05-21 13:37:00,94.6,46.0,29.74,South,187,2.7,3.1,19,0.00,,CLR,0.00,VWS V14.00,2013-05-21 17:37:00,
2013-05-21 13:42:00,94.8,46.2,29.74,SE,138,0.0,0.0,19,0.00,,CLR,0.00,VWS V14.00,2013-05-21 17:42:00,
2013-05-21 13:47:00,94.5,45.9,29.74,SE,129,3.1,3.1,19,0.00,,CLR,0.00,VWS V14.00,2013-05-21 17:47:00,
2013-05-21 13:52:00,93.9,46.8,29.74,SSW,211,0.0,0.0,20,0.00,,CLR,0.00,VWS V14.00,2013-05-21 17:52:00,
2013-05-21 13:57:00,93.9,48.1,29.74,WSW,251,0.0,0.0,21,0.00,,CLR,0.00,VWS V14.00,2013-05-21 17:57:00,
2013-05-21 14:02:00,94.6,46.0,29.74,South,178,2.7,3.1,19,0.00,,CLR,0.00,VWS V14.00,2013-05-21 18:02:00,
2013-05-21 14:07:00,94.6,46.0,29.74,South,175,2.7,2.7,19,0.00,,CLR,0.00,VWS V14.00,2013-05-21 18:07:00,
2013-05-21 14:12:00,94.5,45.9,29.74,ESE,103,0.0,0.0,19,0.00,,CLR,0.00,VWS V14.00,2013-05-21 18:12:00,
2013-05-21 14:17:00,94.3,45.7,29.74,West,261,2.7,3.1,19,0.00,,CLR,0.00,VWS V14.00,2013-05-21 18:17:00,
2013-05-21 14:22:00,93.9,46.8,29.74,SE,134,3.1,3.1,20,0.00,,CLR,0.00,VWS V14.00,2013-05-21 18:22:00,
2013-05-21 14:27:00,93.4,46.4,29.71,SSE,168,0.0,0.0,20,0.00,,CLR,0.00,VWS V14.00,2013-05-21 18:27:00,
2013-05-21 14:32:00,93.2,47.5,29.71,SSW,207,0.0,0.0,21,0.00,,CLR,0.00,VWS V14.00,2013-05-21 18:32:00,
2013-05-21 14:37:00,93.7,46.7,29.71,SSW,201,0.0,3.1,20,0.00,,CLR,0.00,VWS V14.00,2013-05-21 18:37:00,
2013-05-21 14:42:00,94.1,44.2,29.71,SE,138,0.0,3.1,18,0.00,,CLR,0.00,VWS V14.00,2013-05-21 18:42:00,
2013-05-21 14:47:00,94.1,44.2,29.71,WSW,258,0.0,2.7,18,0.00,,CLR,0.00,VWS V14.00,2013-05-21 18:47:00,
2013-05-21 14:52:00,93.6,45.2,29.71,SSE,159,2.7,3.6,19,0.00,,CLR,0.00,VWS V14.00,2013-05-21 18:52:00,
2013-05-21 14:57:00,92.8,44.6,29.71,South,177,0.0,2.7,19,0.00,,CLR,0.00,VWS V14.00,2013-05-21 18:57:00,
2013-05-21 15:02:00,92.8,44.6,29.71,ESE,105,0.0,0.0,19,0.00,,CLR,0.00,VWS V14.00,2013-05-21 19:02:00,
2013-05-21 15:07:00,92.5,44.3,29.71,SSE,150,3.1,3.6,19,0.00,,CLR,0.00,VWS V14.00,2013-05-21 19:07:00,
2013-05-21 15:12:00,92.5,45.6,29.71,SW,226,0.0,3.1,20,0.00,,CLR,0.00,VWS V14.00,2013-05-21 19:12:00,
2013-05-21 15:17:00,93.0,44.7,29.71,SW,223,2.7,3.1,19,0.00,,CLR,0.00,VWS V14.00,2013-05-21 19:17:00,
2013-05-21 15:22:00,93.0,43.3,29.71,WSW,237,4.9,4.9,18,0.00,,CLR,0.00,VWS V14.00,2013-05-21 19:22:00,
2013-05-21 15:27:00,92.5,42.9,29.71,WSW,238,3.6,3.6,18,0.00,,CLR,0.00,VWS V14.00,2013-05-21 19:27:00,
2013-05-21 15:32:00,92.3,44.1,29.71,SSE,154,3.6,4.9,19,0.00,,CLR,0.00,VWS V14.00,2013-05-21 19:32:00,
2013-05-21 15:37:00,92.8,44.6,29.71,South,174,0.0,3.1,19,0.00,,CLR,0.00,VWS V14.00,2013-05-21 19:37:00,
2013-05-21 15:42:00,93.2,44.9,29.71,SE,139,3.1,4.5,19,0.00,,CLR,0.00,VWS V14.00,2013-05-21 19:42:00,
2013-05-21 15:47:00,93.4,43.6,29.71,SSW,205,3.1,3.1,18,0.00,,CLR,0.00,VWS V14.00,2013-05-21 19:47:00,
2013-05-21 15:52:00,93.2,43.4,29.71,SSE,157,4.0,4.0,18,0.00,,CLR,0.00,VWS V14.00,2013-05-21 19:52:00,
2013-05-21 15:57:00,92.7,43.0,29.71,WSW,255,3.6,4.5,18,0.00,,CLR,0.00,VWS V14.00,2013-05-21 19:57:00,
2013-05-21 16:02:00,92.3,44.1,29.71,SSE,162,0.0,4.0,19,0.00,,CLR,0.00,VWS V14.00,2013-05-21 20:02:00,
2013-05-21 16:07:00,92.5,42.9,29.71,SE,146,4.0,4.0,18,0.00,,CLR,0.00,VWS V14.00,2013-05-21 20:07:00,
2013-05-21 16:13:00,92.7,43.0,29.71,SSW,207,0.0,3.6,18,0.00,,CLR,0.00,VWS V14.00,2013-05-21 20:13:00,
2013-05-21 16:18:00,92.7,43.0,29.71,SE,134,4.0,4.0,18,0.00,,CLR,0.00,VWS V14.00,2013-05-21 20:18:00,
2013-05-21 16:23:00,92.7,43.0,29.71,SSE,162,0.0,3.1,18,0.00,,CLR,0.00,VWS V14.00,2013-05-21 20:23:00,
2013-05-21 16:28:00,92.5,42.9,29.71,WSW,240,3.6,3.6,18,0.00,,CLR,0.00,VWS V14.00,2013-05-21 20:28:00,
2013-05-21 16:33:00,92.3,44.1,29.71,SE,134,4.0,4.5,19,0.00,,CLR,0.00,VWS V14.00,2013-05-21 20:33:00,
2013-05-21 16:38:00,92.1,42.6,29.71,SW,232,0.0,3.6,18,0.00,,CLR,0.00,VWS V14.00,2013-05-21 20:38:00,
2013-05-21 16:43:00,91.4,42.0,29.71,ESE,117,4.0,4.0,18,0.00,,CLR,0.00,VWS V14.00,2013-05-21 20:43:00,
2013-05-21 16:48:00,90.7,42.8,29.71,South,183,3.6,4.0,19,0.00,,CLR,0.00,VWS V14.00,2013-05-21 20:48:00,
2013-05-21 16:53:00,90.0,43.5,29.71,SSE,155,3.1,4.0,20,0.00,,CLR,0.00,VWS V14.00,2013-05-21 20:53:00,
2013-05-21 16:58:00,89.6,43.3,29.71,SW,229,3.1,3.6,20,0.00,,CLR,0.00,VWS V14.00,2013-05-21 20:58:00,
2013-05-21 17:03:00,89.4,44.4,29.71,SE,138,3.6,4.5,21,0.00,,CLR,0.00,VWS V14.00,2013-05-21 21:03:00,
2013-05-21 17:08:00,89.2,45.5,29.71,SSE,168,3.6,4.9,22,0.00,,CLR,0.00,VWS V14.00,2013-05-21 21:08:00,
2013-05-21 17:13:00,89.1,45.3,29.68,South,171,0.0,4.5,22,0.00,,CLR,0.00,VWS V14.00,2013-05-21 21:13:00,
2013-05-21 17:18:00,88.9,45.2,29.68,SSE,166,0.0,4.5,22,0.00,,CLR,0.00,VWS V14.00,2013-05-21 21:18:00,
2013-05-21 17:23:00,88.5,47.2,29.68,SSW,207,5.8,5.8,24,0.00,,CLR,0.00,VWS V14.00,2013-05-21 21:23:00,
2013-05-21 17:28:00,88.3,47.0,29.71,South,175,3.1,4.9,24,0.00,,CLR,0.00,VWS V14.00,2013-05-21 21:28:00,
2013-05-21 17:33:00,88.2,47.9,29.71,SW,221,4.0,6.3,25,0.00,,CLR,0.00,VWS V14.00,2013-05-21 21:33:00,
2013-05-21 17:38:00,88.0,47.8,29.71,WSW,242,4.5,4.5,25,0.00,,CLR,0.00,VWS V14.00,2013-05-21 21:38:00,
2013-05-21 17:43:00,87.8,47.6,29.71,SSE,165,2.7,3.6,25,0.00,,CLR,0.00,VWS V14.00,2013-05-21 21:43:00,
2013-05-21 17:48:00,87.4,47.3,29.71,WSW,241,3.6,4.0,25,0.00,,CLR,0.00,VWS V14.00,2013-05-21 21:48:00,
2013-05-21 17:53:00,87.3,48.2,29.71,SSE,166,0.0,3.6,26,0.00,,CLR,0.00,VWS V14.00,2013-05-21 21:53:00,
2013-05-21 17:58:00,87.1,50.1,29.71,South,180,0.0,0.0,28,0.00,,CLR,0.00,VWS V14.00,2013-05-21 21:58:00,
2013-05-21 18:03:00,86.9,49.9,29.71,SW,217,3.6,4.0,28,0.00,,CLR,0.00,VWS V14.00,2013-05-21 22:03:00,
2013-05-21 18:08:00,86.5,49.6,29.71,WSW,247,2.7,4.9,28,0.00,,CLR,0.00,VWS V14.00,2013-05-21 22:08:00,
2013-05-21 18:13:00,86.2,49.3,29.71,West,260,4.5,4.5,28,0.00,,CLR,0.00,VWS V14.00,2013-05-21 22:13:00,
2013-05-21 18:18:00,85.8,49.0,29.71,WSW,246,0.0,4.9,28,0.00,,CLR,0.00,VWS V14.00,2013-05-21 22:18:00,
2013-05-21 18:23:00,85.6,48.8,29.71,WSW,253,2.7,4.0,28,0.00,,CLR,0.00,VWS V14.00,2013-05-21 22:23:00,
2013-05-21 18:28:00,85.3,48.5,29.74,SW,219,4.0,4.0,28,0.00,,CLR,0.00,VWS V14.00,2013-05-21 22:28:00,
2013-05-21 18:33:00,84.7,49.0,29.74,SE,141,0.0,4.5,29,0.00,,CLR,0.00,VWS V14.00,2013-05-21 22:33:00,
2013-05-21 18:38:00,84.6,48.8,29.74,WSW,238,0.0,3.6,29,0.00,,CLR,0.00,VWS V14.00,2013-05-21 22:38:00,
2013-05-21 18:43:00,84.2,48.5,29.74,SW,226,3.1,3.6,29,0.00,,CLR,0.00,VWS V14.00,2013-05-21 22:43:00,
2013-05-21 18:48:00,84.0,49.3,29.74,SSW,206,0.0,0.0,30,0.00,,CLR,0.00,VWS V14.00,2013-05-21 22:48:00,
2013-05-21 18:53:00,83.7,49.0,29.74,SSE,163,0.0,3.6,30,0.00,,CLR,0.00,VWS V14.00,2013-05-21 22:53:00,
2013-05-21 18:58:00,83.3,48.7,29.74,SE,134,0.0,0.0,30,0.00,,CLR,0.00,VWS V14.00,2013-05-21 22:58:00,
2013-05-21 19:03:00,83.1,49.4,29.74,SSE,160,0.0,0.0,31,0.00,,CLR,0.00,VWS V14.00,2013-05-21 23:03:00,
2013-05-21 19:08:00,82.8,49.1,29.74,SSE,159,0.0,0.0,31,0.00,,CLR,0.00,VWS V14.00,2013-05-21 23:08:00,
2013-05-21 19:13:00,82.6,48.9,29.74,WSW,243,0.0,0.0,31,0.00,,CLR,0.00,VWS V14.00,2013-05-21 23:13:00,
2013-05-21 19:18:00,82.2,49.5,29.74,SSW,197,0.0,3.1,32,0.00,,CLR,0.00,VWS V14.00,2013-05-21 23:18:00,
2013-05-21 19:23:00,82.0,49.3,29.74,SSW,207,0.0,0.0,32,0.00,,CLR,0.00,VWS V14.00,2013-05-21 23:23:00,
2013-05-21 19:28:00,81.7,49.0,29.74,South,177,0.0,0.0,32,0.00,,CLR,0.00,VWS V14.00,2013-05-21 23:28:00,
2013-05-21 19:33:00,81.5,48.8,29.74,SSE,164,0.0,0.0,32,0.00,,CLR,0.00,VWS V14.00,2013-05-21 23:33:00,
2013-05-21 19:38:00,81.3,49.5,29.74,SSE,164,0.0,0.0,33,0.00,,CLR,0.00,VWS V14.00,2013-05-21 23:38:00,
2013-05-21 19:43:00,81.1,49.3,29.74,SSE,150,0.0,0.0,33,0.00,,CLR,0.00,VWS V14.00,2013-05-21 23:43:00,
2013-05-21 19:48:00,80.8,49.0,29.74,SSE,150,0.0,0.0,33,0.00,,CLR,0.00,VWS V14.00,2013-05-21 23:48:00,
2013-05-21 19:53:00,80.6,49.7,29.74,WSW,245,0.0,3.1,34,0.00,,CLR,0.00,VWS V14.00,2013-05-21 23:53:00,
2013-05-21 19:58:00,80.4,49.5,29.74,WSW,245,0.0,0.0,34,0.00,,CLR,0.00,VWS V14.00,2013-05-21 23:58:00,
2013-05-21 20:03:00,80.1,50.0,29.74,SW,234,0.0,0.0,35,0.00,,CLR,0.00,VWS V14.00,2013-05-22 00:03:00,
2013-05-21 20:08:00,79.9,49.8,29.74,SW,224,0.0,0.0,35,0.00,,CLR,0.00,VWS V14.00,2013-05-22 00:08:00,
2013-05-21 20:13:00,79.7,50.4,29.74,SW,222,0.0,0.0,36,0.00,,CLR,0.00,VWS V14.00,2013-05-22 00:13:00,
2013-05-21 20:18:00,79.3,50.1,29.74,SW,222,0.0,0.0,36,0.00,,CLR,0.00,VWS V14.00,2013-05-22 00:18:00,
2013-05-21 20:23:00,78.8,51.1,29.74,SW,222,0.0,0.0,38,0.00,,CLR,0.00,VWS V14.00,2013-05-22 00:23:00,
2013-05-21 20:28:00,78.3,51.3,29.74,SW,222,0.0,0.0,39,0.00,,CLR,0.00,VWS V14.00,2013-05-22 00:28:00,
2013-05-21 20:33:00,78.1,51.8,29.74,SW,220,0.0,0.0,40,0.00,,CLR,0.00,VWS V14.00,2013-05-22 00:33:00,
2013-05-21 20:38:00,78.1,51.8,29.74,SW,218,0.0,0.0,40,0.00,,CLR,0.00,VWS V14.00,2013-05-22 00:38:00,
2013-05-21 20:43:00,77.5,51.3,29.74,SW,218,0.0,0.0,40,0.00,,CLR,0.00,VWS V14.00,2013-05-22 00:43:00,
2013-05-21 20:48:00,76.8,51.4,29.74,SE,136,0.0,0.0,41,0.00,,CLR,0.00,VWS V14.00,2013-05-22 00:48:00,
2013-05-21 20:53:00,76.3,51.5,29.74,SE,124,0.0,2.7,42,0.00,,CLR,0.00,VWS V14.00,2013-05-22 00:53:00,
2013-05-21 20:58:00,75.9,51.8,29.74,ESE,123,0.0,3.1,43,0.00,,CLR,0.00,VWS V14.00,2013-05-22 00:58:00,
2013-05-21 21:03:00,75.7,52.3,29.74,ESE,123,0.0,2.7,44,0.00,,CLR,0.00,VWS V14.00,2013-05-22 01:03:00,
2013-05-21 21:08:00,75.4,52.0,29.74,ESE,123,0.0,0.0,44,0.00,,CLR,0.00,VWS V14.00,2013-05-22 01:08:00,
2013-05-21 21:13:00,75.2,52.4,29.74,SE,137,0.0,2.7,45,0.00,,CLR,0.00,VWS V14.00,2013-05-22 01:13:00,
2013-05-21 21:18:00,74.8,52.1,29.74,SSW,197,0.0,0.0,45,0.00,,CLR,0.00,VWS V14.00,2013-05-22 01:18:00,
2013-05-21 21:23:00,74.5,52.4,29.74,ESE,117,3.6,3.6,46,0.00,,CLR,0.00,VWS V14.00,2013-05-22 01:23:00,
2013-05-21 21:28:00,74.3,52.8,29.74,SE,143,0.0,0.0,47,0.00,,CLR,0.00,VWS V14.00,2013-05-22 01:28:00,
2013-05-21 21:33:00,73.9,52.5,29.74,SE,145,0.0,0.0,47,0.00,,CLR,0.00,VWS V14.00,2013-05-22 01:33:00,
2013-05-21 21:38:00,73.8,52.9,29.74,SSE,161,0.0,0.0,48,0.00,,CLR,0.00,VWS V14.00,2013-05-22 01:38:00,
2013-05-21 21:43:00,73.6,52.7,29.74,SW,228,0.0,0.0,48,0.00,,CLR,0.00,VWS V14.00,2013-05-22 01:43:00,
2013-05-21 21:48:00,73.2,52.9,29.74,SSE,160,0.0,0.0,49,0.00,,CLR,0.00,VWS V14.00,2013-05-22 01:48:00,
2013-05-21 21:53:00,73.0,52.8,29.74,ESE,120,3.1,3.1,49,0.00,,CLR,0.00,VWS V14.00,2013-05-22 01:53:00,
2013-05-21 21:58:00,72.9,53.2,29.74,SE,144,0.0,0.0,50,0.00,,CLR,0.00,VWS V14.00,2013-05-22 01:58:00,
2013-05-21 22:03:00,72.7,53.0,29.74,ESE,113,0.0,3.6,50,0.00,,CLR,0.00,VWS V14.00,2013-05-22 02:03:00,
2013-05-21 22:08:00,72.5,52.8,29.74,SSE,154,0.0,0.0,50,0.00,,CLR,0.00,VWS V14.00,2013-05-22 02:08:00,
2013-05-21 22:13:00,72.3,53.2,29.74,SSW,205,0.0,0.0,51,0.00,,CLR,0.00,VWS V14.00,2013-05-22 02:13:00,
2013-05-21 22:18:00,72.1,53.0,29.74,SE,127,0.0,0.0,51,0.00,,CLR,0.00,VWS V14.00,2013-05-22 02:18:00,
2013-05-21 22:23:00,72.0,53.4,29.74,SE,136,0.0,0.0,52,0.00,,CLR,0.00,VWS V14.00,2013-05-22 02:23:00,
2013-05-21 22:28:00,71.8,53.2,29.74,SE,136,0.0,0.0,52,0.00,,CLR,0.00,VWS V14.00,2013-05-22 02:28:00,
2013-05-21 22:33:00,71.6,53.6,29.74,SE,136,0.0,0.0,53,0.00,,CLR,0.00,VWS V14.00,2013-05-22 02:33:00,
2013-05-21 22:38:00,71.6,54.1,29.74,SE,139,0.0,0.0,54,0.00,,CLR,0.00,VWS V14.00,2013-05-22 02:38:00,
2013-05-21 22:43:00,71.4,53.9,29.74,SSE,148,0.0,0.0,54,0.00,,CLR,0.00,VWS V14.00,2013-05-22 02:43:00,
2013-05-21 22:48:00,71.2,53.8,29.74,SSE,148,0.0,0.0,54,0.00,,CLR,0.00,VWS V14.00,2013-05-22 02:48:00,
2013-05-21 22:53:00,71.1,54.1,29.74,ESE,123,0.0,0.0,55,0.00,,CLR,0.00,VWS V14.00,2013-05-22 02:53:00,
2013-05-21 22:58:00,70.9,53.9,29.74,ESE,120,2.7,2.7,55,0.00,,CLR,0.00,VWS V14.00,2013-05-22 02:58:00,
2013-05-21 23:03:00,70.7,54.2,29.74,ESE,117,0.0,2.7,56,0.00,,CLR,0.00,VWS V14.00,2013-05-22 03:03:00,
2013-05-21 23:08:00,70.5,54.1,29.74,ESE,116,2.7,3.1,56,0.00,,CLR,0.00,VWS V14.00,2013-05-22 03:08:00,
2013-05-21 23:13:00,70.3,53.9,29.77,ESE,116,0.0,0.0,56,0.00,,CLR,0.00,VWS V14.00,2013-05-22 03:13:00,
2013-05-21 23:18:00,70.3,54.4,29.77,ESE,117,0.0,0.0,57,0.00,,CLR,0.00,VWS V14.00,2013-05-22 03:18:00,
2013-05-21 23:23:00,70.2,54.2,29.77,ESE,117,0.0,0.0,57,0.00,,CLR,0.00,VWS V14.00,2013-05-22 03:23:00,
2013-05-21 23:28:00,70.0,54.1,29.77,ENE,74,0.0,0.0,57,0.00,,CLR,0.00,VWS V14.00,2013-05-22 03:28:00,
2013-05-21 23:33:00,70.0,54.1,29.77,ENE,74,0.0,0.0,57,0.00,,CLR,0.00,VWS V14.00,2013-05-22 03:33:00,
2013-05-21 23:38:00,70.0,54.5,29.77,ENE,74,0.0,0.0,58,0.00,,CLR,0.00,VWS V14.00,2013-05-22 03:38:00,
2013-05-21 23:43:00,70.0,54.5,29.77,ENE,74,0.0,0.0,58,0.00,,CLR,0.00,VWS V14.00,2013-05-22 03:43:00,
2013-05-21 23:48:00,70.0,54.5,29.77,ENE,62,0.0,0.0,58,0.00,,CLR,0.00,VWS V14.00,2013-05-22 03:48:00,
2013-05-21 23:53:00,70.0,55.0,29.77,NE,42,0.0,0.0,59,0.00,,CLR,0.00,VWS V14.00,2013-05-22 03:53:00,
2013-05-21 23:58:00,70.0,55.0,29.77,NE,42,0.0,0.0,59,0.00,,CLR,0.00,VWS V14.00,2013-05-22 03:58:00,